Погода Шамары

Погода Шамары : погода сейчас, прогноз погоды и архив. Всё, что Вы хотите узнать о погоде Шамары!

Поиск расширенной информации на нашем сайте:

Другие новости

Новости СМИ2

Главная страница сайта

Новости сайта

03.07.2017

Напоминаем, что на нашем специализированном сайте Метеоцентр.Азия вы можете получить высокодетализированные автоматические прогнозы погоды по пунктам России, СНГ и мира в авиационном формате (включающие направление и скорость ветра, видимость, явления погоды, количество и форму облачности, нижнюю и верхнюю границу облачности).


Погода Шамары - сегодня

Время (UTC), дата Ветер
(°,м/с) 
Видим.   Явления Облачность Т
(°С)
Тd
(°С)
f(%) Тe
(°С)
Pmin
(гПа)
dP
(гПа)
Po
(мм)
O2
(г/м3)
Тmin Tmax R s Состояние
почвы
21 21.09.17 040 (СВ) 10 км    9/9 300 м кучево-дожд. 
[Cb calv]
+5.4 +3.2 86 +6  1029.9  1.1  749  296           
00 22.09.17 050 (СВ) 10 км    10/10 300 м кучево-дожд. 
[Cb calv]
+4.9 +3.3 89 +6  1031.3  1.3  750  297           
03 22.09.17 350 (С) 20000 м    9/9 300 м 
[Cu Sc]
+5.3 +3.5 88 +6  1032.6  1.3  751  296  +4.4    0.0    влажная 
06 22.09.17 010 (С) 20000 м    10/10 300 м 
[Cu Sc]
+7.4 +2.9 73 +7  1033.2  0.9  752  295           
09 22.09.17 340 (С) 20000 м    9/9 300 м кучево-дожд. 
[Cb calv]
+8.8 +3.5 69 +8  1032.9  -0.2  752  293           
12 22.09.17 330 (СЗ) 20000 м    9/9 300 м кучево-дожд. 
[Cb calv]
+8.9 +3.4 68 +8  1033.8  0.9  753  293           
18 22.09.17 340 (С) 10 км    10/10 300 м кучево-дожд. 
[Cb calv]
+4.3 +1.5 82 +4  1036.5  0.7  754  299           
21 22.09.17 310 (СЗ) 10 км    10/10 300 м кучево-дожд. 
[Cb calv]
+4.1 +1.5 83 +5  1037  0.5  755  299           
00 23.09.17 310 (СЗ) 10 км    10/10 300 м кучево-дожд. 
[Cb calv]
+3.8 +1.4 84 +3  1037.4  0.3  755  300           
06 23.09.17 300 (СЗ) 20000 м    10/10 300 м кучево-дожд. 
[Cb calv]
+5.5 +1.8 77 +6  1037  755  298           
09 23.09.17 300 (СЗ) 20000 м    10/10 300 м кучево-дожд. 
[Cb calv]
+6.4 +0.9 68 +6  1035.8  -1.1  754  297           
12 23.09.17 250 (З) 20000 м    10/10 300 м кучево-дожд. 
[Cb calv]
+6.7 +1.1 67 +8  1034.7  -1  753  296           
15 23.09.17 240 (ЮЗ) 4000 м  слаб. дождь  10/10 300 м 
[Frnb|Ns]
+5.4 +2.7 83 +6  1033.8  -0.9  752  297    +7  0.0     
18 23.09.17 210 (ЮЗ) 4000 м  слаб. дождь  10/10 300 м 
[Frnb|Ns]
+4.9 +3.3 89 +6  1032.8  -1.1  752  297           
21 23.09.17 220 (ЮЗ) 4000 м  слаб. дождь  10/10 300 м 
[Frnb|Ns]
+4.7 +3.4 91 +6  1031.9  -0.8  751  297           
00 24.09.17 тихо ()   4000 м  слаб. дождь  10/10 300 м 
[Frnb|Ns]
+4.4 +3.3 93 +4  1031.6  -0.3  751  297           
03 24.09.17 080 (В) 20000 м  слаб. дождь  10/10 300 м 
[Ns]
+4.2 +3.1 93 +5  1032.4  0.7  751  298  +4.1      влажная 
06 24.09.17 070 (В) 20000 м  {дождь}  9/9 300 м средняя 
[As op]
+5.7 +3.3 85 +5  1033.7  1.4  752  296           
09 24.09.17 080 (В) 20000 м    10/10 300 м кучево-дожд. 
[Cb calv]
+5.6 +2.3 79 +4  1035.9  2.1  754  297           
12 24.09.17 060 (СВ) 20000 м    10/10 300 м кучево-дожд. 
[Cb calv]
+6.2 +1.7 73 +5  1037.3  1.4  755  297           
18 24.09.17 тихо ()   4000 м    10/4 600 м средняя 
[Cu hum|Ac As]
+2.5 +0.9 89 +3  1038.3  0.1  755  301           
21 24.09.17 тихо ()   4000 м    10/0 средняя 
[Ac As]
+2.1 +0.8 91 +2  1037.8  -0.5  755  302           
00 25.09.17 210 (ЮЗ) 4000 м    10/0 средняя 
[Ac As]
+2.1 +1 92 +3  1036.6  -1.2  754  301           
06 25.09.17 230 (ЮЗ) 10 км  дождь{морось}  10/10 300 м 
[Frnb|Ns]
+3.3 +1.4 87 +3  1033.9  -1.1  752  299           
09 25.09.17 220 (ЮЗ) 20000 м  {морось}  10/10 300 м кучево-дожд. 
[Cb calv]
+4.4 +2.1 85 +4  1032.6  -1.2  751  298           
Время (UTC), дата Ветер
(°,м/с) 
Видим.   Явления Облачность Т
(°С)
Тd
(°С)
f(%) Тe
(°С)
Pmin
(гПа)
dP
(гПа)
Po
(мм)
O2
(г/м3)
Тmin Tmax R s Состояние
почвы

Для получения пояснительной информации подведите курсор к названию столбца.

ПОГОДА Шамары - архив

Всё, что Вы хотите узнать о погоде Шамары - удобно и подробно!

Выберите нужную дату (начиная с 1 января 2015* года) и нажмите кнопку "Найти".
Будут отображены архивные сводки погоды по пункту Шамары, начиная с указанной даты.


Отображать данные в формате CSV (для использования в таблицах Excel)


Внимание! Наш архив погоды предназначен исключительно для личного некоммерческого использования в познавательных целях. Если Вам необходимы официальные справки о состоянии погоды (для производственных, юридических, коммерческих и т.п. целей), обращайтесь в органы Росгидромета.

*Примечание: данная дата относится к архиву по метеостанциям СССР (Россия, СНГ, Балтия).
Архив по метеостанциям Зарубежной Европы и Азии (кроме Китая) хранится 10 дней, по другим регионам земного шара (Китай, Африка, Америка, Австралия, Океания) - 1 день.

Шамары - район местоположения метеостанции


Название, широта, долгота, высота метеостанции:
Шамары 57.3°ш. 58.2°д. 244 м над ур. моря [Российская Федерация]

Дополнительная информация

В oтличие oт бoльшинства пoгoдных сайтoв мы публикуем пoдрoбную метеoинфoрмацию в детальнoм прoфессиoнальнoм фoрмате.

Характеристики температуры и влажнoсти вoздуха измеряются на высoте 2 м в тени вдали oт зданий и деревьев.
Скoрoсть ветра измеряется на высoте 10 м (на урoвне рoста челoвека скoрoсть ветра ниже в 1.5-2 раза). Если метеoстанция нахoдится в гoрoде или в лесу, тo скoрoсть ветра занижена на 2-4 м/с пo сравнению с oткрытым местoм. Скoрoсть ветра над акватoриями крупных рек и oзёр, а также на вершинах хoлмoв на 2-5 м/с выше, чем в oбычных услoвиях.
Атмoсфернoе давление в разных тoчках местнoсти мoжет значительнo oтличаться oт давления на метеoстанции, в зависимoсти oт услoвий рельефа (при пoдъёме на 10 м давление пoнижается примернo на 1 мм рт.ст.).